CW0214 Weather Reports


Display with metric or nautical units.
time (UTC)temp
F
wind
direction
speed
MPH
gust
MPH
rain 1hr
in
rain 24hr
in
rain mn
in
humidity
%
barometer
mb
20260508235404 57 11 6.0 13.0 0.00 0.07 0.00 88 1007.9
20260508234904 57 32 5.0 12.0 0.00 0.07 0.00 88 1007.8
20260508233905 57 20 6.0 12.0 0.00 0.07 0.00 87 1007.7
20260508233405 57 8 6.0 12.0 0.00 0.07 0.00 87 1007.8
20260508232904 57 30 6.0 12.0 0.00 0.07 0.00 87 1007.8
20260508232405 57 15 5.0 13.0 0.00 0.07 0.00 86 1007.7
20260508231905 57 54 5.0 12.0 0.00 0.07 0.00 86 1007.7
20260508230905 57 2 5.0 14.0 0.00 0.07 0.00 86 1007.5
20260508230405 57 16 6.0 9.0 0.00 0.07 0.00 87 1007.7
20260508225904 57 355 5.0 9.0 0.00 0.07 0.07 88 1008.0
20260508225405 57 9 4.0 10.0 0.01 0.07 0.07 88 1008.0
20260508224905 57 332 3.0 10.0 0.01 0.07 0.07 88 1007.9
20260508224405 57 50 3.0 8.0 0.01 0.07 0.07 89 1007.9
20260508223904 57 12 1.0 8.0 0.01 0.07 0.07 89 1007.6
20260508223406 57 304 3.0 9.0 0.01 0.07 0.07 89 1007.6
20260508222905 57 313 1.0 6.0 0.01 0.07 0.07 89 1007.3
20260508222405 57 333 2.0 6.0 0.02 0.07 0.07 88 1007.3
20260508221905 57 28 3.0 10.0 0.02 0.07 0.07 89 1007.9
20260508221404 58 11 4.0 8.0 0.02 0.07 0.07 89 1008.2
20260508220905 58 14 7.0 10.0 0.02 0.07 0.07 88 1008.3
20260508220405 58 20 6.0 13.0 0.02 0.07 0.07 88 1008.4
20260508215404 58 46 4.0 7.0 0.01 0.06 0.06 89 1008.5
20260508214405 58 21 0.0 3.0 0.01 0.06 0.06 89 1008.7
20260508213904 58 21 2.0 6.0 0.01 0.06 0.06 88 1008.7
20260508213404 58 21 4.0 8.0 0.01 0.06 0.06 88 1008.8
20260508212904 58 24 5.0 12.0 0.01 0.06 0.06 88 1008.7
20260508212404 58 13 6.0 10.0 0.00 0.06 0.06 89 1008.8
20260508210404 58 45 5.0 8.0 0.01 0.06 0.06 88 1008.8
20260508205905 58 84 0.0 1.0 0.01 0.06 0.06 88 1008.7
20260508204904 58 84 0.0 0.0 0.01 0.06 0.06 88 1008.5
20260508203904 58 84 0.0 0.0 0.06 0.06 0.06 87 1008.3
20260508202904 58 82 4.0 6.0 0.06 0.06 0.06 87 1008.1
20260508201904 58 39 2.0 8.0 0.06 0.06 0.06 86 1008.1
20260508201405 58 35 2.0 7.0 0.06 0.06 0.06 85 1008.0
20260508200405 59 54 2.0 6.0 0.05 0.05 0.05 85 1007.8
20260508195905 59 44 1.0 8.0 0.05 0.05 0.05 84 1007.8
20260508195405 59 65 2.0 5.0 0.05 0.05 0.05 82 1007.8
20260508194904 59 46 1.0 6.0 0.05 0.05 0.05 81 1007.8
20260508194405 60 37 3.0 9.0 0.04 0.04 0.04 78 1007.9
20260508193905 61 12 7.0 18.0 0.00 0.00 0.00 75 1008.2
20260508193404 63 34 13.0 25.0 0.00 0.00 0.00 70 1007.9
20260508192905 64 58 8.0 15.0 0.00 0.00 0.00 66 1007.8
20260508192405 65 30 5.0 6.0 0.00 0.00 0.00 62 1007.4
20260508191906 65 30 0.0 2.0 0.00 0.00 0.00 60 1007.2
20260508191406 65 30 0.0 0.0 0.00 0.00 0.00 59 1007.0
20260508190906 65 30 0.0 0.0 0.00 0.00 0.00 59 1007.0
20260508190405 65 30 0.0 0.0 0.00 0.00 0.00 59 1006.9
20260508185906 65 30 0.0 0.0 0.00 0.00 0.00 58 1006.9
20260508184406 65 30 0.0 0.0 0.00 0.00 0.00 60 1006.9
20260508183906 65 29 0.0 1.0 0.00 0.00 0.00 59 1007.1
20260508183405 66 29 2.0 6.0 0.00 0.00 0.00 58 1007.2
20260508182905 67 28 3.0 7.0 0.00 0.00 0.00 56 1007.5
20260508182405 67 42 2.0 8.0 0.00 0.00 0.00 54 1007.3
20260508181905 67 45 2.0 7.0 0.00 0.00 0.00 50 1007.3
20260508181406 68 50 0.0 3.0 0.00 0.00 0.00 49 1007.2
20260508180405 68 103 3.0 6.0 0.00 0.00 0.00 47 1007.0
20260508175905 68 27 1.0 6.0 0.00 0.00 0.00 46 1007.0
20260508175406 68 27 0.0 6.0 0.00 0.00 0.00 46 1007.0
20260508174907 68 27 3.0 6.0 0.00 0.00 0.00 46 1007.1
20260508172405 69 36 0.0 0.0 0.00 0.00 0.00 46 1007.2
20260508171906 69 61 0.0 6.0 0.00 0.00 0.00 46 1007.3
20260508171405 69 28 0.0 6.0 0.00 0.00 0.00 45 1007.2
20260508170905 69 17 3.0 10.0 0.00 0.00 0.00 44 1007.3
20260508170405 69 60 5.0 8.0 0.00 0.00 0.00 44 1007.2
20260508165926 69 40 1.0 6.0 0.00 0.00 0.00 45 1007.3
20260508165417 69 40 1.0 6.0 0.00 0.00 0.00 44 1007.3
20260508164905 69 9 1.0 5.0 0.00 0.00 0.00 44 1007.4
20260508164404 69 13 2.0 8.0 0.00 0.00 0.00 44 1007.4
20260508163905 69 36 4.0 7.0 0.00 0.00 0.00 44 1007.5
20260508162905 69 49 0.0 1.0 0.00 0.00 0.00 44 1007.6
20260508161405 69 15 1.0 7.0 0.00 0.00 0.00 44 1007.8
20260508160905 69 30 0.0 7.0 0.00 0.00 0.00 45 1007.8
20260508160405 69 30 3.0 8.0 0.00 0.00 0.00 43 1007.9
20260508155405 69 71 0.0 1.0 0.00 0.00 0.00 44 1007.9
20260508154905 69 79 1.0 5.0 0.00 0.00 0.00 44 1008.0
20260508153904 69 54 5.0 8.0 0.00 0.00 0.00 44 1008.0
20260508153405 69 46 1.0 8.0 0.00 0.00 0.00 44 1008.0
20260508152906 69 65 4.0 9.0 0.00 0.00 0.00 44 1008.0
20260508151905 69 59 1.0 6.0 0.00 0.00 0.00 44 1008.2
20260508151405 69 19 3.0 7.0 0.00 0.00 0.00 43 1008.4
20260508150905 69 5 0.0 3.0 0.00 0.00 0.00 44 1008.4
20260508150406 69 52 1.0 7.0 0.00 0.00 0.00 44 1008.6
20260508145905 69 26 2.0 6.0 0.00 0.00 0.00 44 1008.8
20260508144904 69 37 2.0 10.0 0.00 0.00 0.00 43 1008.9
20260508144405 69 22 6.0 10.0 0.00 0.00 0.00 43 1009.0
20260508143905 70 42 2.0 8.0 0.00 0.00 0.00 44 1009.0
20260508143405 69 30 5.0 8.0 0.00 0.00 0.00 45 1009.1
20260508142906 68 26 1.0 12.0 0.00 0.00 0.00 44 1009.1
20260508142404 69 12 6.0 10.0 0.00 0.00 0.00 44 1009.1
20260508141905 69 11 2.0 6.0 0.00 0.00 0.00 43 1009.2
20260508141405 69 52 4.0 10.0 0.00 0.00 0.00 45 1009.3
20260508140905 69 32 3.0 10.0 0.00 0.00 0.00 45 1009.3
20260508140405 68 31 4.0 12.0 0.00 0.00 0.00 46 1009.3
20260508135905 68 83 5.0 12.0 0.00 0.00 0.00 46 1009.2
20260508134905 68 11 5.0 8.0 0.00 0.00 0.00 45 1009.4
20260508134405 68 46 4.0 9.0 0.00 0.00 0.00 47 1009.5
20260508133905 68 35 4.0 8.0 0.00 0.00 0.00 45 1009.5
20260508133405 68 64 4.0 9.0 0.00 0.00 0.00 46 1009.7
20260508132905 68 25 3.0 12.0 0.00 0.00 0.00 47 1009.7
20260508132405 67 64 5.0 9.0 0.00 0.00 0.00 48 1009.9
20260508131904 67 60 7.0 12.0 0.00 0.00 0.00 48 1009.9
20260508131405 67 42 5.0 12.0 0.00 0.00 0.00 48 1010.0
20260508130905 67 34 5.0 9.0 0.00 0.00 0.00 48 1010.0
20260508130405 67 23 8.0 12.0 0.00 0.00 0.00 48 1010.1
20260508125905 67 29 3.0 13.0 0.00 0.00 0.00 48 1010.1
20260508125405 67 29 3.0 8.0 0.00 0.00 0.00 48 1010.0
20260508124905 67 351 2.0 10.0 0.00 0.00 0.00 48 1010.1
20260508124406 66 55 1.0 10.0 0.00 0.00 0.00 47 1010.1
20260508123905 67 39 6.0 12.0 0.00 0.00 0.00 47 1010.2
20260508123405 67 52 5.0 14.0 0.00 0.00 0.00 47 1010.3
20260508122905 67 34 5.0 13.0 0.00 0.00 0.00 47 1010.3
20260508122405 67 88 3.0 13.0 0.00 0.00 0.00 47 1010.4
20260508121905 66 18 3.0 13.0 0.00 0.00 0.00 48 1010.5
20260508121405 66 65 4.0 12.0 0.00 0.00 0.00 48 1010.6
20260508120905 67 35 5.0 12.0 0.00 0.00 0.00 47 1010.7
20260508115905 67 73 7.0 12.0 0.00 0.00 0.00 46 1010.8
20260508115405 67 34 8.0 18.0 0.00 0.00 0.00 45 1010.8
20260508114904 68 38 7.0 20.0 0.00 0.00 0.00 46 1010.8
20260508114405 67 37 9.0 14.0 0.00 0.00 0.00 47 1010.9
20260508113905 67 30 9.0 15.0 0.00 0.00 0.00 48 1011.0
20260508113404 67 52 8.0 15.0 0.00 0.00 0.00 47 1011.1
20260508112905 68 71 2.0 16.0 0.00 0.00 0.00 47 1011.0
20260508112405 67 52 6.0 12.0 0.00 0.00 0.00 48 1011.1
20260508111904 67 45 7.0 12.0 0.00 0.00 0.00 48 1011.2
20260508111405 67 22 7.0 14.0 0.00 0.00 0.00 48 1011.3
20260508110905 68 21 4.0 12.0 0.00 0.00 0.00 47 1011.3
20260508110405 67 100 6.0 10.0 0.00 0.00 0.00 49 1011.3
20260508105905 65 71 3.0 12.0 0.00 0.00 0.00 52 1011.4
20260508104905 65 77 1.0 6.0 0.00 0.00 0.00 52 1011.4
20260508103905 64 40 5.0 13.0 0.00 0.00 0.00 54 1011.5
20260508102405 64 36 5.0 10.0 0.00 0.00 0.00 54 1011.7
20260508101905 63 69 2.0 8.0 0.00 0.00 0.00 57 1011.6
20260508101405 63 11 3.0 16.0 0.00 0.00 0.00 57 1011.6
20260508100905 63 41 7.0 12.0 0.00 0.00 0.00 56 1011.6
20260508100404 63 27 3.0 12.0 0.00 0.00 0.00 60 1011.6
20260508095905 63 31 2.0 10.0 0.00 0.00 0.00 60 1011.6
20260508095404 62 49 1.0 5.0 0.00 0.00 0.00 62 1011.7
20260508094405 61 41 1.0 6.0 0.00 0.00 0.00 67 1011.9
20260508093905 60 12 5.0 9.0 0.00 0.00 0.00 67 1012.0
20260508093405 59 76 4.0 9.0 0.00 0.00 0.00 68 1012.1
20260508092905 59 21 5.0 9.0 0.00 0.00 0.00 68 1012.0
20260508092405 59 51 3.0 10.0 0.00 0.00 0.00 69 1012.0
20260508091904 59 74 5.0 8.0 0.00 0.00 0.00 69 1012.0
20260508091405 58 84 5.0 9.0 0.00 0.00 0.00 69 1012.0
20260508090905 58 44 6.0 12.0 0.00 0.00 0.00 69 1012.0
20260508090405 58 32 4.0 10.0 0.00 0.00 0.00 69 1012.0
20260508085405 58 37 6.0 9.0 0.00 0.00 0.00 70 1011.9
20260508084904 58 40 5.0 8.0 0.00 0.00 0.00 71 1011.8
20260508084405 58 31 2.0 6.0 0.00 0.00 0.00 74 1011.8
20260508083904 58 13 3.0 6.0 0.00 0.00 0.00 75 1011.8
20260508082905 58 13 1.0 6.0 0.00 0.00 0.00 75 1011.6
20260508082405 57 13 2.0 5.0 0.00 0.00 0.00 76 1011.6
20260508081905 57 13 1.0 3.0 0.00 0.00 0.00 77 1011.6
20260508081404 57 13 0.0 2.0 0.00 0.00 0.00 78 1011.5
20260508080905 57 13 0.0 0.0 0.00 0.00 0.00 78 1011.5
20260508080405 57 13 0.0 1.0 0.00 0.00 0.00 78 1011.6
20260508075905 56 13 0.0 3.0 0.00 0.00 0.00 78 1011.5
20260508075405 57 13 0.0 0.0 0.00 0.00 0.00 78 1011.4
20260508074905 56 13 0.0 5.0 0.00 0.00 0.00 78 1011.5
20260508074404 56 13 1.0 3.0 0.00 0.00 0.00 79 1011.4
20260508073904 56 13 0.0 0.0 0.00 0.00 0.00 81 1011.4
20260508073405 55 13 0.0 2.0 0.00 0.00 0.00 80 1011.4
20260508072405 55 302 0.0 0.0 0.00 0.00 0.00 84 1011.2
20260508070905 54 302 1.0 3.0 0.00 0.00 0.00 85 1011.0
20260508070405 54 302 2.0 3.0 0.00 0.00 0.00 85 1011.1
20260508065905 54 302 2.0 3.0 0.00 0.00 0.00 85 1011.1
20260508065405 54 302 0.0 3.0 0.00 0.00 0.00 85 1011.1
20260508064404 54 302 0.0 5.0 0.00 0.00 0.00 85 1011.0
20260508063905 54 313 3.0 6.0 0.00 0.00 0.00 84 1010.9
20260508063405 54 315 3.0 5.0 0.00 0.00 0.00 82 1010.8
20260508062405 55 65 0.0 0.0 0.00 0.00 0.00 81 1010.9
20260508061405 55 65 0.0 1.0 0.00 0.00 0.00 80 1010.9
20260508060905 54 65 0.0 0.0 0.00 0.00 0.00 81 1010.9
20260508060404 54 65 0.0 0.0 0.00 0.00 0.00 81 1010.8
20260508055905 54 65 0.0 0.0 0.00 0.00 0.00 82 1010.8
20260508055405 54 65 0.0 0.0 0.00 0.00 0.00 82 1010.7
20260508054905 54 65 1.0 3.0 0.00 0.00 0.00 82 1010.7
20260508054405 54 65 0.0 0.0 0.00 0.00 0.00 82 1010.6
20260508053907 54 65 0.0 0.0 0.00 0.00 0.00 83 1010.7
20260508053405 54 65 0.0 0.0 0.00 0.00 0.00 83 1010.6
20260508052904 54 65 0.0 0.0 0.00 0.00 0.00 83 1010.4
20260508052405 54 65 0.0 1.0 0.00 0.00 0.00 83 1010.3
20260508051405 54 65 0.0 2.0 0.00 0.00 0.00 83 1010.3
20260508050904 54 65 0.0 2.0 0.00 0.00 0.00 84 1010.2
20260508050405 54 65 0.0 2.0 0.00 0.00 0.00 84 1010.2
20260508045904 54 65 0.0 0.0 0.00 0.00 0.00 84 1010.3
20260508045404 54 65 0.0 0.0 0.00 0.00 0.00 83 1010.3
20260508044904 54 65 0.0 0.0 0.00 0.00 0.00 83 1010.1
20260508044405 54 65 0.0 0.0 0.00 0.00 0.00 83 1010.1
20260508043904 54 65 1.0 5.0 0.00 0.00 0.00 83 1010.1
20260508043404 54 65 1.0 3.0 0.00 0.00 0.00 83 1010.1
20260508042905 54 65 1.0 3.0 0.00 0.00 0.00 83 1010.1
20260508042404 54 65 1.0 5.0 0.00 0.00 0.00 84 1010.1
20260508041904 55 105 2.0 5.0 0.00 0.00 0.00 84 1010.2
20260508041404 55 105 1.0 5.0 0.00 0.00 0.00 84 1010.1
20260508040904 55 105 0.0 1.0 0.00 0.00 0.00 84 1010.0
20260508035404 55 108 0.0 5.0 0.00 0.00 0.00 84 1010.0
20260508034904 55 114 2.0 5.0 0.00 0.00 0.00 84 1009.9
20260508034404 55 87 2.0 5.0 0.00 0.00 0.00 84 1010.0
20260508033905 55 87 1.0 3.0 0.00 0.00 0.00 84 1010.1
20260508033404 55 87 1.0 3.0 0.00 0.00 0.00 83 1010.0
20260508032905 55 87 0.0 0.0 0.00 0.00 0.00 83 1009.9
20260508032405 55 87 1.0 5.0 0.00 0.00 0.00 83 1010.0
20260508031905 55 101 1.0 5.0 0.00 0.00 0.00 83 1010.0
20260508031405 55 101 0.0 3.0 0.00 0.00 0.00 83 1010.0
20260508030905 55 101 1.0 3.0 0.00 0.00 0.00 83 1010.0
20260508030405 55 101 2.0 3.0 0.00 0.00 0.00 83 1010.1
20260508025905 55 101 2.0 3.0 0.00 0.00 0.00 82 1010.1
20260508025404 55 103 0.0 1.0 0.00 0.00 0.00 82 1010.2
20260508024905 55 103 2.0 6.0 0.00 0.00 0.00 82 1010.2
20260508024404 56 112 3.0 5.0 0.00 0.00 0.00 82 1010.2
20260508023904 56 70 2.0 5.0 0.00 0.00 0.00 82 1010.2
20260508023405 56 92 1.0 5.0 0.00 0.00 0.00 82 1010.2
20260508022905 56 92 3.0 8.0 0.00 0.00 0.00 82 1010.2
20260508021404 56 67 2.0 3.0 0.00 0.00 0.00 82 1010.2
20260508020904 56 85 3.0 6.0 0.00 0.00 0.00 81 1010.3
20260508015904 56 86 3.0 7.0 0.00 0.00 0.00 81 1010.4
20260508014904 56 99 1.0 5.0 0.00 0.00 0.00 81 1010.3
20260508014404 56 99 0.0 0.0 0.00 0.00 0.00 81 1010.5
20260508013905 56 99 0.0 1.0 0.00 0.00 0.00 81 1010.6
20260508013404 56 99 1.0 3.0 0.00 0.00 0.00 81 1010.7
20260508012905 56 99 0.0 1.0 0.00 0.00 0.00 81 1010.6
20260508012404 56 99 0.0 5.0 0.00 0.00 0.00 80 1010.5
20260508011404 56 99 1.0 3.0 0.00 0.00 0.00 81 1010.6
20260508010905 56 99 0.0 1.0 0.00 0.00 0.00 80 1010.6
20260508005904 56 99 0.0 0.0 0.00 0.00 0.00 80 1010.6
20260508004905 56 99 0.0 0.0 0.00 0.00 0.00 80 1010.5
20260508003904 56 144 0.0 0.0 0.00 0.00 0.00 80 1010.7
20260508003404 56 144 0.0 0.0 0.00 0.00 0.00 80 1010.8
20260508002405 57 144 0.0 0.0 0.00 0.00 0.00 79 1010.9
20260508001904 57 144 0.0 0.0 0.00 0.00 0.00 79 1011.0
20260508001405 57 144 0.0 0.0 0.00 0.00 0.00 79 1011.0
20260508000904 57 144 0.0 0.0 0.00 0.00 0.00 79 1011.1
20260508000405 57 144 0.0 0.0 0.00 0.00 0.00 79 1011.0